When you browse on this site, cookies collect data to enhance your experience and personalize the content and advertising you see.
Visit our Privacy Policy to learn more. By continuing to use the site, you agree to this use of cookies and data.
EN

Hourly Weather New Albany

Today, 11 August, Tuesday

Time Temperature Precipitation Wind Pressure Humidity
00:00 +24°C° 0 mm 3 mps 745 mmHg 80%
01:00 +24°C° 0 mm 3 mps 744 mmHg 83%
02:00 +23°C° 0 mm 2 mps 743 mmHg 87%
03:00 +21°C° 0 mm 2 mps 743 mmHg 90%
04:00 +21°C° 0 mm 2 mps 743 mmHg 90%
05:00 +22°C° 0 mm 1 mps 744 mmHg 89%
06:00 +23°C° 0 mm 1 mps 745 mmHg 90%
07:00 +24°C° 0 mm 1 mps 745 mmHg 86%
08:00 +24°C° 0 mm 1 mps 745 mmHg 82%
09:00 +25°C° 0 mm 2 mps 745 mmHg 77%
10:00 +27°C° 0 mm 2 mps 745 mmHg 72%
11:00 +29°C° 0 mm 2 mps 745 mmHg 66%
12:00 +30°C° 0 mm 2 mps 745 mmHg 60%
13:00 +31°C° 0 mm 2 mps 745 mmHg 60%
14:00 +31°C° 0 mm 2 mps 745 mmHg 61%
15:00 +33°C° 0 mm 3 mps 745 mmHg 61%
16:00 +31°C° 0 mm 2 mps 745 mmHg 65%
17:00 +30°C° 0 mm 2 mps 744 mmHg 70%
18:00 +29°C° 0 mm 2 mps 744 mmHg 74%
19:00 +27°C° 0 mm 2 mps 744 mmHg 78%
20:00 +26°C° 0 mm 2 mps 745 mmHg 82%
21:00 +25°C° 0 mm 1 mps 745 mmHg 85%
22:00 +25°C° 0 mm 1 mps 745 mmHg 87%
23:00 +24°C° 0 mm 1 mps 745 mmHg 88%

Tomorrow, 12 August, Wednesday

Time Temperature Precipitation Wind Pressure Humidity
00:00 +24°C° 0 mm 1 mps 745 mmHg 90%
01:00 +24°C° 0 mm 1 mps 745 mmHg 91%
02:00 +23°C° 0 mm 1 mps 745 mmHg 91%
03:00 +23°C° 0 mm 1 mps 745 mmHg 91%
04:00 +23°C° 0 mm 1 mps 745 mmHg 91%
05:00 +24°C° 0 mm 1 mps 745 mmHg 90%
06:00 +24°C° 0 mm 1 mps 746 mmHg 90%
07:00 +25°C° 0 mm 1 mps 746 mmHg 85%
08:00 +26°C° 0 mm 1 mps 746 mmHg 80%
09:00 +28°C° 0 mm 1 mps 746 mmHg 75%
10:00 +29°C° 0 mm 1 mps 746 mmHg 70%
11:00 +30°C° 0 mm 1 mps 746 mmHg 66%
12:00 +32°C° 0 mm 1 mps 746 mmHg 61%
13:00 +31°C° 0 mm 1 mps 746 mmHg 63%
14:00 +31°C° 0 mm 1 mps 745 mmHg 65%
15:00 +31°C° 0 mm 1 mps 745 mmHg 67%
16:00 +30°C° 0 mm 2 mps 745 mmHg 71%
17:00 +29°C° 0 mm 2 mps 745 mmHg 75%
18:00 +28°C° 0 mm 2 mps 745 mmHg 80%
19:00 +27°C° 2 mm 2 mps 745 mmHg 82%
20:00 +26°C° 2 mm 1 mps 745 mmHg 84%
21:00 +25°C° 2 mm 1 mps 746 mmHg 87%
22:00 +25°C° 0.7 mm 2 mps 746 mmHg 88%
23:00 +25°C° 0.7 mm 2 mps 746 mmHg 89%

Day after tomorrow, 13 August, Thursday

Time Temperature Precipitation Wind Pressure Humidity
00:00 +24°C° 0.7 mm 3 mps 745 mmHg 90%
01:00 +24°C° 0.1 mm 3 mps 745 mmHg 90%
02:00 +24°C° 0.1 mm 3 mps 745 mmHg 90%
03:00 +24°C° 0.1 mm 2 mps 745 mmHg 90%
04:00 +24°C° 0.8 mm 2 mps 745 mmHg 91%
05:00 +24°C° 0.8 mm 2 mps 745 mmHg 93%
06:00 +24°C° 0.8 mm 2 mps 745 mmHg 94%
07:00 +24°C° 1 mm 3 mps 746 mmHg 94%
08:00 +24°C° 1 mm 3 mps 746 mmHg 93%
09:00 +23°C° 1 mm 4 mps 746 mmHg 93%
10:00 +23°C° 0.9 mm 4 mps 746 mmHg 92%
11:00 +23°C° 0.9 mm 4 mps 745 mmHg 92%
12:00 +23°C° 0.9 mm 4 mps 745 mmHg 91%
13:00 +24°C° 0.2 mm 3 mps 745 mmHg 90%
14:00 +24°C° 0.2 mm 3 mps 744 mmHg 88%
15:00 +24°C° 0.2 mm 3 mps 744 mmHg 87%
16:00 +22°C° 0.3 mm 3 mps 744 mmHg 88%
17:00 +22°C° 0.2 mm 3 mps 744 mmHg 89%
18:00 +21°C° 0.2 mm 3 mps 744 mmHg 89%
19:00 +21°C° 0 mm 3 mps 744 mmHg 89%
20:00 +21°C° 0 mm 3 mps 744 mmHg 89%
21:00 +21°C° 0 mm 3 mps 744 mmHg 89%
22:00 +21°C° 0 mm 2 mps 744 mmHg 89%
23:00 +21°C° 0 mm 2 mps 743 mmHg 88%

14 August, Friday

Time Temperature Precipitation Wind Pressure Humidity
00:00 +20°C° 0 mm 2 mps 743 mmHg 88%
01:00 +20°C° 0 mm 2 mps 743 mmHg 89%
02:00 +20°C° 0 mm 2 mps 743 mmHg 90%
03:00 +21°C° 0 mm 1 mps 742 mmHg 92%
04:00 +20°C° 0 mm 2 mps 743 mmHg 91%
05:00 +20°C° 0 mm 2 mps 743 mmHg 91%
06:00 +21°C° 0 mm 2 mps 743 mmHg 91%
07:00 +23°C° 0.2 mm 2 mps 743 mmHg 88%
08:00 +24°C° 0.2 mm 3 mps 743 mmHg 85%
09:00 +25°C° 0.2 mm 3 mps 743 mmHg 81%
10:00 +26°C° 0.2 mm 3 mps 743 mmHg 82%
11:00 +26°C° 0.2 mm 2 mps 743 mmHg 82%
12:00 +26°C° 0.2 mm 2 mps 742 mmHg 82%
13:00 +27°C° 0.1 mm 3 mps 742 mmHg 79%
14:00 +28°C° 0.1 mm 3 mps 741 mmHg 76%
15:00 +28°C° 0.1 mm 4 mps 741 mmHg 73%
16:00 +27°C° 0.3 mm 3 mps 741 mmHg 76%
17:00 +27°C° 0.3 mm 3 mps 741 mmHg 79%
18:00 +26°C° 0.3 mm 2 mps 741 mmHg 82%
19:00 +25°C° 0 mm 2 mps 741 mmHg 85%
20:00 +24°C° 0 mm 2 mps 741 mmHg 87%
21:00 +24°C° 0 mm 2 mps 741 mmHg 90%
22:00 +23°C° 0 mm 2 mps 741 mmHg 91%
23:00 +23°C° 0 mm 2 mps 741 mmHg 92%

15 August, Saturday

Time Temperature Precipitation Wind Pressure Humidity
00:00 +21°C° 0 mm 2 mps 741 mmHg 93%
01:00 +21°C° 0 mm 2 mps 741 mmHg 94%
02:00 +21°C° 0 mm 2 mps 742 mmHg 95%
03:00 +21°C° 0 mm 2 mps 742 mmHg 96%
04:00 +21°C° 0.2 mm 2 mps 742 mmHg 95%
05:00 +21°C° 0.2 mm 2 mps 742 mmHg 95%
06:00 +21°C° 0.2 mm 2 mps 742 mmHg 94%
07:00 +23°C° 0 mm 2 mps 743 mmHg 90%
08:00 +24°C° 0 mm 2 mps 743 mmHg 85%
09:00 +25°C° 0 mm 2 mps 743 mmHg 81%
10:00 +26°C° 0 mm 3 mps 743 mmHg 79%
11:00 +27°C° 0 mm 3 mps 743 mmHg 76%
12:00 +28°C° 0 mm 3 mps 743 mmHg 74%
13:00 +28°C° 0 mm 3 mps 743 mmHg 73%
14:00 +28°C° 0 mm 3 mps 743 mmHg 73%
15:00 +28°C° 0 mm 3 mps 742 mmHg 72%
16:00 +27°C° 0 mm 3 mps 742 mmHg 75%
17:00 +27°C° 0 mm 2 mps 742 mmHg 78%
18:00 +26°C° 0 mm 2 mps 743 mmHg 81%
19:00 +25°C° 0 mm 2 mps 743 mmHg 84%
20:00 +24°C° 0 mm 1 mps 743 mmHg 86%
21:00 +23°C° 0 mm 1 mps 743 mmHg 88%
22:00 +23°C° 0 mm 1 mps 743 mmHg 89%
23:00 +23°C° 0 mm 1 mps 743 mmHg 91%

16 August, Sunday

Time Temperature Precipitation Wind Pressure Humidity
00:00 +22°C° 0 mm 1 mps 743 mmHg 92%
01:00 +22°C° 0 mm 1 mps 743 mmHg 92%
02:00 +22°C° 0 mm 1 mps 743 mmHg 92%
03:00 +22°C° 0 mm 1 mps 743 mmHg 93%
04:00 +22°C° 0 mm 1 mps 744 mmHg 92%
05:00 +22°C° 0 mm 1 mps 744 mmHg 92%
06:00 +22°C° 0 mm 1 mps 744 mmHg 91%
07:00 +24°C° 0 mm 1 mps 744 mmHg 84%
08:00 +26°C° 0 mm 1 mps 744 mmHg 78%
09:00 +28°C° 0 mm 1 mps 745 mmHg 71%
10:00 +29°C° 0 mm 2 mps 745 mmHg 66%
11:00 +30°C° 0 mm 2 mps 744 mmHg 61%
12:00 +31°C° 0 mm 2 mps 744 mmHg 56%
13:00 +31°C° 0 mm 2 mps 744 mmHg 56%
14:00 +31°C° 0 mm 1 mps 743 mmHg 56%
15:00 +31°C° 0 mm 1 mps 743 mmHg 55%
16:00 +30°C° 0 mm 1 mps 743 mmHg 60%
17:00 +29°C° 0 mm 1 mps 743 mmHg 65%
18:00 +28°C° 0 mm 1 mps 743 mmHg 70%
19:00 +27°C° 0 mm 1 mps 743 mmHg 74%
20:00 +26°C° 0 mm 1 mps 743 mmHg 77%
21:00 +25°C° 0 mm 1 mps 743 mmHg 80%
22:00 +25°C° 0 mm 1 mps 743 mmHg 82%
23:00 +24°C° 0 mm 1 mps 743 mmHg 83%
Show more